Directory Listing
Index of /dewikiversity/20260501/

Index of /dewikiversity/20260501/


../
dewikiversity-20260501-all-titles-in-ns0.gz        01-May-2026 21:44    453K
dewikiversity-20260501-all-titles.gz               01-May-2026 21:44      1M
dewikiversity-20260501-babel.sql.gz                01-May-2026 21:37    3407
dewikiversity-20260501-category.sql.gz             01-May-2026 21:37    232K
dewikiversity-20260501-categorylinks.sql.gz        01-May-2026 21:37      3M
dewikiversity-20260501-change_tag.sql.gz           01-May-2026 21:37      2M
dewikiversity-20260501-change_tag_def.sql.gz       01-May-2026 21:37    1443
dewikiversity-20260501-externallinks.sql.gz        01-May-2026 21:37      2M
dewikiversity-20260501-geo_tags.sql.gz             01-May-2026 21:37     884
dewikiversity-20260501-image.sql.gz                01-May-2026 21:36      3M
dewikiversity-20260501-imagelinks.sql.gz           01-May-2026 21:37    234K
dewikiversity-20260501-iwlinks.sql.gz              01-May-2026 21:37    855K
dewikiversity-20260501-langlinks.sql.gz            01-May-2026 21:37    115K
dewikiversity-20260501-linktarget.sql.gz           01-May-2026 21:37      5M
dewikiversity-20260501-md5sums.json                01-May-2026 22:18    3182
dewikiversity-20260501-md5sums.txt                 01-May-2026 22:18    2972
dewikiversity-20260501-page.sql.gz                 01-May-2026 21:37      5M
dewikiversity-20260501-page_props.sql.gz           01-May-2026 21:37    707K
dewikiversity-20260501-page_restrictions.sql.gz    01-May-2026 21:37    5888
dewikiversity-20260501-pagelinks.sql.gz            01-May-2026 21:36      3M
dewikiversity-20260501-pages-articles-multistre..> 01-May-2026 21:41      1M
dewikiversity-20260501-pages-articles-multistre..> 01-May-2026 21:41    880K
dewikiversity-20260501-pages-articles-multistre..> 01-May-2026 21:41     49M
dewikiversity-20260501-pages-articles-multistre..> 01-May-2026 21:41     37M
dewikiversity-20260501-pages-articles.xml.bz2      01-May-2026 21:39     44M
dewikiversity-20260501-pages-articles.xml.bz2.i..> 01-May-2026 21:39     17M
dewikiversity-20260501-pages-logging.xml.gz        01-May-2026 21:45      6M
dewikiversity-20260501-pages-meta-current.xml.bz2  01-May-2026 21:43     62M
dewikiversity-20260501-pages-meta-history.xml.7z   01-May-2026 22:18    197M
dewikiversity-20260501-pages-meta-history.xml.bz2  01-May-2026 22:13      1G
dewikiversity-20260501-pages-meta-history.xml.b..> 01-May-2026 21:45     12M
dewikiversity-20260501-protected_titles.sql.gz     01-May-2026 21:37    1036
dewikiversity-20260501-redirect.sql.gz             01-May-2026 21:37     32K
dewikiversity-20260501-runsettings.txt             01-May-2026 20:42      28
dewikiversity-20260501-sha1sums.json               01-May-2026 22:18    3487
dewikiversity-20260501-sha1sums.txt                01-May-2026 22:18    3276
dewikiversity-20260501-site_stats.sql.gz           01-May-2026 21:36     845
dewikiversity-20260501-siteinfo-namespaces.json.gz 01-May-2026 21:44    6687
dewikiversity-20260501-siteinfo2-namespacesv2.j..> 01-May-2026 21:44    6937
dewikiversity-20260501-sites.sql.gz                01-May-2026 21:37     23K
dewikiversity-20260501-stub-articles.xml.gz        01-May-2026 20:46     10M
dewikiversity-20260501-stub-meta-current.xml.gz    01-May-2026 20:46     12M
dewikiversity-20260501-stub-meta-history.xml.gz    01-May-2026 20:46     68M
dewikiversity-20260501-templatelinks.sql.gz        01-May-2026 21:37      6M
dewikiversity-20260501-user_former_groups.sql.gz   01-May-2026 21:37    1090
dewikiversity-20260501-user_groups.sql.gz          01-May-2026 21:37    1032
dewikiversity-20260501-wbc_entity_usage.sql.gz     01-May-2026 21:37    246K
dumpruninfo.json                                   01-May-2026 22:18    2562
dumpruninfo.txt                                    01-May-2026 22:18    2202
dumpspecialfiles.json                              01-May-2026 22:18     134
dumpstatus.json                                    01-May-2026 22:18     12K
md5sums-dewikiversity-20260501-all-titles-in-ns..> 01-May-2026 21:44      78
md5sums-dewikiversity-20260501-all-titles.gz.txt   01-May-2026 21:44      71
md5sums-dewikiversity-20260501-babel.sql.gz.txt    01-May-2026 21:37      70
md5sums-dewikiversity-20260501-category.sql.gz.txt 01-May-2026 21:37      73
md5sums-dewikiversity-20260501-categorylinks.sq..> 01-May-2026 21:37      78
md5sums-dewikiversity-20260501-change_tag.sql.g..> 01-May-2026 21:37      75
md5sums-dewikiversity-20260501-change_tag_def.s..> 01-May-2026 21:37      79
md5sums-dewikiversity-20260501-externallinks.sq..> 01-May-2026 21:37      78
md5sums-dewikiversity-20260501-geo_tags.sql.gz.txt 01-May-2026 21:37      73
md5sums-dewikiversity-20260501-image.sql.gz.txt    01-May-2026 21:36      70
md5sums-dewikiversity-20260501-imagelinks.sql.g..> 01-May-2026 21:37      75
md5sums-dewikiversity-20260501-iwlinks.sql.gz.txt  01-May-2026 21:37      72
md5sums-dewikiversity-20260501-langlinks.sql.gz..> 01-May-2026 21:37      74
md5sums-dewikiversity-20260501-linktarget.sql.g..> 01-May-2026 21:37      75
md5sums-dewikiversity-20260501-page.sql.gz.txt     01-May-2026 21:37      69
md5sums-dewikiversity-20260501-page_props.sql.g..> 01-May-2026 21:37      75
md5sums-dewikiversity-20260501-page_restriction..> 01-May-2026 21:37      82
md5sums-dewikiversity-20260501-pagelinks.sql.gz..> 01-May-2026 21:37      74
md5sums-dewikiversity-20260501-pages-articles-m..> 01-May-2026 21:41      98
md5sums-dewikiversity-20260501-pages-articles-m..> 01-May-2026 21:41      92
md5sums-dewikiversity-20260501-pages-articles.x..> 01-May-2026 21:39      80
md5sums-dewikiversity-20260501-pages-logging.xm..> 01-May-2026 21:45      78
md5sums-dewikiversity-20260501-pages-meta-curre..> 01-May-2026 21:43      84
md5sums-dewikiversity-20260501-pages-meta-histo..> 01-May-2026 22:18      83
md5sums-dewikiversity-20260501-pages-meta-histo..> 01-May-2026 22:13      84
md5sums-dewikiversity-20260501-protected_titles..> 01-May-2026 21:37      81
md5sums-dewikiversity-20260501-redirect.sql.gz.txt 01-May-2026 21:37      73
md5sums-dewikiversity-20260501-site_stats.sql.g..> 01-May-2026 21:36      75
md5sums-dewikiversity-20260501-siteinfo-namespa..> 01-May-2026 21:44      85
md5sums-dewikiversity-20260501-siteinfo2-namesp..> 01-May-2026 21:44      88
md5sums-dewikiversity-20260501-sites.sql.gz.txt    01-May-2026 21:37      70
md5sums-dewikiversity-20260501-stub-articles.xm..> 01-May-2026 20:46      78
md5sums-dewikiversity-20260501-stub-meta-curren..> 01-May-2026 20:46      82
md5sums-dewikiversity-20260501-stub-meta-histor..> 01-May-2026 20:46      82
md5sums-dewikiversity-20260501-templatelinks.sq..> 01-May-2026 21:37      78
md5sums-dewikiversity-20260501-user_former_grou..> 01-May-2026 21:37      83
md5sums-dewikiversity-20260501-user_groups.sql...> 01-May-2026 21:37      76
md5sums-dewikiversity-20260501-wbc_entity_usage..> 01-May-2026 21:37      81
report.json                                        01-May-2026 22:18    6583
sha1sums-dewikiversity-20260501-all-titles-in-n..> 01-May-2026 21:44      86
sha1sums-dewikiversity-20260501-all-titles.gz.txt  01-May-2026 21:44      79
sha1sums-dewikiversity-20260501-babel.sql.gz.txt   01-May-2026 21:37      78
sha1sums-dewikiversity-20260501-category.sql.gz..> 01-May-2026 21:37      81
sha1sums-dewikiversity-20260501-categorylinks.s..> 01-May-2026 21:37      86
sha1sums-dewikiversity-20260501-change_tag.sql...> 01-May-2026 21:37      83
sha1sums-dewikiversity-20260501-change_tag_def...> 01-May-2026 21:37      87
sha1sums-dewikiversity-20260501-externallinks.s..> 01-May-2026 21:37      86
sha1sums-dewikiversity-20260501-geo_tags.sql.gz..> 01-May-2026 21:37      81
sha1sums-dewikiversity-20260501-image.sql.gz.txt   01-May-2026 21:36      78
sha1sums-dewikiversity-20260501-imagelinks.sql...> 01-May-2026 21:37      83
sha1sums-dewikiversity-20260501-iwlinks.sql.gz.txt 01-May-2026 21:37      80
sha1sums-dewikiversity-20260501-langlinks.sql.g..> 01-May-2026 21:37      82
sha1sums-dewikiversity-20260501-linktarget.sql...> 01-May-2026 21:37      83
sha1sums-dewikiversity-20260501-page.sql.gz.txt    01-May-2026 21:37      77
sha1sums-dewikiversity-20260501-page_props.sql...> 01-May-2026 21:37      83
sha1sums-dewikiversity-20260501-page_restrictio..> 01-May-2026 21:37      90
sha1sums-dewikiversity-20260501-pagelinks.sql.g..> 01-May-2026 21:37      82
sha1sums-dewikiversity-20260501-pages-articles-..> 01-May-2026 21:41     106
sha1sums-dewikiversity-20260501-pages-articles-..> 01-May-2026 21:41     100
sha1sums-dewikiversity-20260501-pages-articles...> 01-May-2026 21:39      88
sha1sums-dewikiversity-20260501-pages-logging.x..> 01-May-2026 21:45      86
sha1sums-dewikiversity-20260501-pages-meta-curr..> 01-May-2026 21:43      92
sha1sums-dewikiversity-20260501-pages-meta-hist..> 01-May-2026 22:18      91
sha1sums-dewikiversity-20260501-pages-meta-hist..> 01-May-2026 22:13      92
sha1sums-dewikiversity-20260501-protected_title..> 01-May-2026 21:37      89
sha1sums-dewikiversity-20260501-redirect.sql.gz..> 01-May-2026 21:37      81
sha1sums-dewikiversity-20260501-site_stats.sql...> 01-May-2026 21:36      83
sha1sums-dewikiversity-20260501-siteinfo-namesp..> 01-May-2026 21:44      93
sha1sums-dewikiversity-20260501-siteinfo2-names..> 01-May-2026 21:44      96
sha1sums-dewikiversity-20260501-sites.sql.gz.txt   01-May-2026 21:37      78
sha1sums-dewikiversity-20260501-stub-articles.x..> 01-May-2026 20:46      86
sha1sums-dewikiversity-20260501-stub-meta-curre..> 01-May-2026 20:46      90
sha1sums-dewikiversity-20260501-stub-meta-histo..> 01-May-2026 20:46      90
sha1sums-dewikiversity-20260501-templatelinks.s..> 01-May-2026 21:37      86
sha1sums-dewikiversity-20260501-user_former_gro..> 01-May-2026 21:37      91
sha1sums-dewikiversity-20260501-user_groups.sql..> 01-May-2026 21:37      84
sha1sums-dewikiversity-20260501-wbc_entity_usag..> 01-May-2026 21:37      89
status.html                                        01-May-2026 22:18     121
tableinfo.json                                     01-May-2026 08:26    1530